Chehalis, WA

11:26 PM PST on January 18, 2017 (GMT -0800)
Chehalis-Centralia

Weather History for KCLS - November, 2012

Change the Weather History Date:

Monday, November 26, 2012

  Actual Average (KTDO) Record (KTDO)
Temperature  
Mean Temperature 39 °F -  
Max Temperature 46 °F 45 °F 58 °F (1977)
Min Temperature 32 °F 33 °F 15 °F (1993)
Degree Days  
Heating Degree Days 26    
Moisture  
Dew Point 35 °F    
Average Humidity 89    
Maximum Humidity 100    
Minimum Humidity 66    
Precipitation  
Precipitation 0.00 in - - ()
Sea Level Pressure  
Sea Level Pressure 30.11 in    
Wind  
Wind Speed 6 mph (NNE)    
Max Wind Speed 14 mph    
Max Gust Speed 16 mph    
Visibility 8 miles    
Events Fog    
Averages and records for this station are not official NWS values.
T = Trace of Precipitation, MM = Missing Value Source: NWS Daily Summary

Daily Weather History Graph

Daily Weather History Graph

Search for Another Location

Airport or City:

Trip Planner

Search our weather history database for the weather conditions in past years. The results will help you decide how hot, cold, wet, or windy it might be!

Date:

Astronomy

Nov. 26, 2012 Rise Set
Actual Time 7:30 AM PST 4:28 PM PST
Civil Twilight 6:56 AM PST 5:02 PM PST
Nautical Twilight 6:18 AM PST 5:39 PM PST
Astronomical Twilight 5:42 AM PST 6:16 PM PST
Moon 3:26 PM PST (11/26) 5:41 AM PST (11/26)
Length of Visible Light 10h 06m
Length of Day
8h 57m
Waxing Gibbous, 97% of the Moon is Illuminated
Nov 26
Waxing Gibbous
Nov 28
Full
Dec 6
Last Quarter
Dec 13
New
Dec 19
First Quarter

Hourly Weather History & Observations

Time (PST) Temp. Windchill Dew Point Humidity Pressure Visibility Wind Dir Wind Speed Gust Speed Precip Events Conditions
12:15 AM 37.4 °F 31.4 °F 37.4 °F 100% 30.20 in 9.0 mi North 8.1 mph - N/A   Overcast
12:35 AM 39.2 °F 33.0 °F 37.4 °F 93% 30.21 in 10.0 mi North 9.2 mph - N/A   Overcast
12:55 AM 39.2 °F 31.6 °F 37.4 °F 93% 30.20 in 10.0 mi NNE 12.7 mph - N/A   Overcast
1:15 AM 39.2 °F 32.0 °F 37.4 °F 93% 30.20 in 10.0 mi NNE 11.5 mph - N/A   Overcast
1:35 AM 37.4 °F 30.3 °F 35.6 °F 93% 30.19 in 9.0 mi North 10.4 mph - N/A   Mostly Cloudy
1:55 AM 37.4 °F 30.8 °F 35.6 °F 93% 30.18 in 10.0 mi NNE 9.2 mph - N/A   Scattered Clouds
2:15 AM 37.4 °F 30.8 °F 35.6 °F 93% 30.17 in 10.0 mi NNE 9.2 mph - N/A   Scattered Clouds
2:35 AM 37.4 °F 30.8 °F 35.6 °F 93% 30.16 in 10.0 mi NNE 9.2 mph - N/A   Clear
2:55 AM 37.4 °F 31.4 °F 35.6 °F 93% 30.15 in 10.0 mi North 8.1 mph - N/A   Scattered Clouds
3:15 AM 37.4 °F 32.1 °F 35.6 °F 93% 30.15 in 10.0 mi North 6.9 mph - N/A   Mostly Cloudy
3:35 AM 37.4 °F 32.1 °F 35.6 °F 93% 30.15 in 10.0 mi North 6.9 mph - N/A   Partly Cloudy
3:55 AM 37.4 °F 31.4 °F 35.6 °F 93% 30.15 in 10.0 mi North 8.1 mph - N/A   Partly Cloudy
4:15 AM 37.4 °F 29.8 °F 35.6 °F 93% 30.15 in 10.0 mi North 11.5 mph - N/A   Partly Cloudy
4:35 AM 37.4 °F 30.3 °F 35.6 °F 93% 30.14 in 10.0 mi NNE 10.4 mph 16.1 mph N/A   Clear
4:55 AM 37.4 °F 31.4 °F 35.6 °F 93% 30.14 in 10.0 mi NNE 8.1 mph - N/A   Partly Cloudy
5:15 AM 37.4 °F 29.8 °F 35.6 °F 93% 30.15 in 10.0 mi North 11.5 mph - N/A   Mostly Cloudy
5:35 AM 37.4 °F 28.9 °F 35.6 °F 93% 30.15 in 10.0 mi NNE 13.8 mph - N/A   Mostly Cloudy
5:55 AM 37.4 °F 30.8 °F 35.6 °F 93% 30.15 in 10.0 mi NNE 9.2 mph - N/A   Mostly Cloudy
6:15 AM 37.4 °F 30.3 °F 35.6 °F 93% 30.14 in 10.0 mi NNE 10.4 mph - N/A   Scattered Clouds
7:15 AM 35.6 °F 29.9 °F 33.8 °F 93% 30.13 in 10.0 mi NNE 6.9 mph - N/A   Clear
7:35 AM 33.8 °F 29.6 °F 32.0 °F 93% 30.13 in 10.0 mi NNE 4.6 mph - N/A   Clear
7:55 AM 33.8 °F 29.6 °F 32.0 °F 93% 30.13 in 9.0 mi NNE 4.6 mph - N/A   Clear
8:15 AM 33.8 °F 30.8 °F 32.0 °F 93% 30.13 in 7.0 mi ENE 3.5 mph - N/A   Clear
8:35 AM 32.0 °F 27.5 °F 32.0 °F 100% 30.13 in 8.0 mi NE 4.6 mph - N/A   Clear
8:55 AM 33.8 °F 30.8 °F 32.0 °F 93% 30.13 in 9.0 mi NE 3.5 mph - N/A   Clear
9:15 AM 35.6 °F - 33.8 °F 93% 30.13 in 7.0 mi Calm Calm - N/A   Clear
9:35 AM 37.4 °F 34.9 °F 35.6 °F 93% 30.13 in 9.0 mi ENE 3.5 mph - N/A   Clear
9:55 AM 39.2 °F - 35.6 °F 87% 30.13 in 5.0 mi Calm Calm - N/A   Clear
10:15 AM 39.2 °F 35.9 °F 35.6 °F 87% 30.12 in 6.0 mi NE 4.6 mph - N/A   Clear
10:35 AM 41.0 °F 39.0 °F 35.6 °F 81% 30.12 in 9.0 mi NE 3.5 mph - N/A   Clear
10:55 AM 41.0 °F 37.1 °F 35.6 °F 81% 30.12 in 8.0 mi South 5.8 mph - N/A   Clear
11:15 AM 41.0 °F 39.0 °F 35.6 °F 81% 30.11 in 9.0 mi SSW 3.5 mph - N/A   Clear
11:35 AM 41.0 °F - 35.6 °F 81% 30.11 in 5.0 mi Calm Calm - N/A   Haze
12:15 PM 44.6 °F 42.2 °F 35.6 °F 71% 30.09 in 8.0 mi NNE 4.6 mph - N/A   Clear
12:35 PM 46.4 °F 44.3 °F 35.6 °F 66% 30.08 in 10.0 mi North 4.6 mph - N/A   Clear
12:55 PM 46.4 °F 45.2 °F 35.6 °F 66% 30.08 in 8.0 mi NNW 3.5 mph - N/A   Clear
1:15 PM 46.4 °F 44.3 °F 37.4 °F 71% 30.07 in 10.0 mi North 4.6 mph - N/A   Clear
1:35 PM 46.4 °F 43.5 °F 37.4 °F 71% 30.07 in 10.0 mi North 5.8 mph - N/A   Clear
1:55 PM 46.4 °F 44.3 °F 37.4 °F 71% 30.07 in 10.0 mi North 4.6 mph - N/A   Clear
2:15 PM 46.4 °F 43.5 °F 39.2 °F 76% 30.06 in 10.0 mi North 5.8 mph - N/A   Clear
2:35 PM 46.4 °F 45.2 °F 37.4 °F 71% 30.06 in 10.0 mi North 3.5 mph - N/A   Clear
2:55 PM 46.4 °F 44.3 °F 37.4 °F 71% 30.05 in 10.0 mi North 4.6 mph - N/A   Clear
3:15 PM 46.4 °F 44.3 °F 37.4 °F 71% 30.05 in 10.0 mi NNW 4.6 mph - N/A   Clear
3:35 PM 44.6 °F 43.1 °F 37.4 °F 76% 30.05 in 10.0 mi NNW 3.5 mph - N/A   Clear
3:55 PM 44.6 °F 43.1 °F 37.4 °F 76% 30.05 in 10.0 mi North 3.5 mph - N/A   Clear
4:15 PM 42.8 °F 41.1 °F 37.4 °F 81% 30.05 in 10.0 mi North 3.5 mph - N/A   Clear
4:35 PM 41.0 °F 39.0 °F 37.4 °F 87% 30.05 in 10.0 mi North 3.5 mph - N/A   Clear
4:55 PM 39.2 °F 37.0 °F 37.4 °F 93% 30.04 in 10.0 mi North 3.5 mph - N/A   Clear
5:15 PM 39.2 °F 37.0 °F 37.4 °F 93% 30.05 in 10.0 mi North 3.5 mph - N/A   Clear
5:35 PM 39.2 °F 35.0 °F 35.6 °F 87% 30.05 in 9.0 mi NNE 5.8 mph - N/A   Clear
5:55 PM 39.2 °F 35.9 °F 35.6 °F 87% 30.05 in 10.0 mi NNE 4.6 mph - N/A   Clear
6:15 PM 39.2 °F - 35.6 °F 87% 30.05 in 10.0 mi Calm Calm - N/A   Clear
6:35 PM 37.4 °F - 35.6 °F 93% 30.05 in 8.0 mi Calm Calm - N/A   Clear
6:55 PM 37.4 °F - 35.6 °F 93% 30.05 in 5.0 mi Calm Calm - N/A   Clear
7:15 PM 35.6 °F - 35.6 °F 100% 30.06 in 5.0 mi Calm Calm - N/A   Clear
7:35 PM 35.6 °F - 33.8 °F 93% 30.05 in 7.0 mi Calm Calm - N/A   Clear
7:55 PM 35.6 °F - 33.8 °F 93% 30.06 in 5.0 mi Calm Calm - N/A   Clear
8:15 PM 33.8 °F - 33.8 °F 100% 30.06 in 0.8 mi Calm Calm - N/A   Mist
8:35 PM 33.8 °F - 32.0 °F 93% 30.07 in 10.0 mi Calm Calm - N/A   Clear
8:55 PM 33.8 °F - 32.0 °F 93% 30.06 in 9.0 mi Calm Calm - N/A   Scattered Clouds
9:15 PM 33.8 °F 30.8 °F 32.0 °F 93% 30.07 in 5.0 mi WSW 3.5 mph - N/A   Partly Cloudy
9:35 PM 32.0 °F - 32.0 °F 100% 30.08 in 0.8 mi Calm Calm - N/A   Mostly Cloudy
9:55 PM 32.0 °F - 32.0 °F 100% 30.08 in 0.8 mi Calm Calm - N/A   Overcast
10:15 PM 32.0 °F - 32.0 °F 100% 30.09 in 0.5 mi Calm Calm - N/A Fog Fog
10:35 PM 32.0 °F 28.7 °F 32.0 °F 100% 30.09 in 1.2 mi SSW 3.5 mph - N/A   Overcast
10:55 PM 32.0 °F 27.5 °F 32.0 °F 100% 30.09 in 7.0 mi South 4.6 mph - N/A   Overcast
11:15 PM 32.0 °F - 32.0 °F 100% 30.09 in 9.0 mi Calm Calm - N/A   Overcast
11:55 PM 32.0 °F - 32.0 °F 100% 30.10 in 4.0 mi Calm Calm - N/A   Overcast